San Antonio, TX

11:43 PM CST on February 11, 2016 (GMT -0600)
Stinson Municipal

Weather History for KSSF - April, 2014

Change the Weather History Date:

Wednesday, April 9, 2014

  Actual Average Record
Temperature  
Mean Temperature 68 °F -  
Max Temperature 89 °F 76 °F 99 °F (2009)
Min Temperature 46 °F 56 °F 39 °F (2003)
Cooling Degree Days 2    
Growing Degree Days 18 (Base 50)    
Moisture  
Dew Point 42 °F    
Average Humidity 47    
Maximum Humidity 80    
Minimum Humidity 15    
Precipitation  
Precipitation 0.00 in - - ()
Sea Level Pressure  
Sea Level Pressure 30.15 in    
Wind  
Wind Speed 4 mph (SSE)    
Max Wind Speed 17 mph    
Max Gust Speed 22 mph    
Visibility 10 miles    
Events      
Averages and records for this station are not official NWS values.
T = Trace of Precipitation, MM = Missing Value Source: NWS Daily Summary

Daily Weather History Graph

Daily Weather History Graph

Search for Another Location

Airport or City:

Trip Planner

Search our weather history database for the weather conditions in past years. The results will help you decide how hot, cold, wet, or windy it might be!

Date:

Astronomy

Apr. 09, 2014 Rise Set
Actual Time 7:14 AM CDT 7:56 PM CDT
Civil Twilight 6:50 AM CDT 8:21 PM CDT
Nautical Twilight 6:21 AM CDT 8:49 PM CDT
Astronomical Twilight 5:52 AM CDT 9:18 PM CDT
Moon 3:08 PM CDT (4/9) 3:40 AM CDT (4/9)
Length of Visible Light 13h 31m
Length of Day
12h 42m
Waxing Gibbous, 72% of the Moon is Illuminated
Apr 9
Waxing Gibbous
Apr 15
Full
Apr 22
Last Quarter
Apr 29
New
May 6
First Quarter

Hourly Weather History & Observations

Time (CDT) Temp. Dew Point Humidity Pressure Visibility Wind Dir Wind Speed Gust Speed Precip Events Conditions
12:53 AM 52.0 °F 41.0 °F 66% 30.18 in 10.0 mi Calm Calm - N/A   Clear
1:53 AM 52.0 °F 41.0 °F 66% 30.18 in 10.0 mi Calm Calm - N/A   Clear
2:53 AM 51.1 °F 42.1 °F 71% 30.18 in 10.0 mi North 3.5 mph - N/A   Clear
3:53 AM 48.9 °F 41.0 °F 74% 30.17 in 10.0 mi Calm Calm - N/A   Clear
4:53 AM 48.0 °F 41.0 °F 77% 30.17 in 10.0 mi Calm Calm - N/A   Clear
5:53 AM 46.9 °F 41.0 °F 80% 30.19 in 10.0 mi North 3.5 mph - N/A   Clear
6:53 AM 46.9 °F 41.0 °F 80% 30.22 in 10.0 mi Calm Calm - N/A   Clear
7:53 AM 48.9 °F 43.0 °F 80% 30.23 in 10.0 mi Calm Calm - N/A   Clear
8:53 AM 61.0 °F 42.1 °F 50% 30.25 in 10.0 mi Calm Calm - N/A   Clear
9:53 AM 66.9 °F 44.1 °F 44% 30.25 in 10.0 mi South 5.8 mph - N/A   Clear
10:53 AM 73.9 °F 44.1 °F 34% 30.24 in 10.0 mi South 11.5 mph - N/A   Clear
11:53 AM 77.0 °F 39.9 °F 26% 30.24 in 10.0 mi South 8.1 mph - N/A   Clear
12:53 PM 80.1 °F 39.0 °F 23% 30.21 in 10.0 mi South 10.4 mph - N/A   Clear
1:53 PM 82.9 °F 37.9 °F 20% 30.16 in 10.0 mi SSW 9.2 mph - N/A   Clear
2:53 PM 86.0 °F 36.0 °F 17% 30.12 in 10.0 mi South 10.4 mph 17.3 mph N/A   Clear
3:53 PM 87.1 °F 34.0 °F 15% 30.08 in 10.0 mi South 9.2 mph 17.3 mph N/A   Clear
4:53 PM 89.1 °F 35.1 °F 15% 30.05 in 10.0 mi South 9.2 mph 19.6 mph N/A   Clear
5:53 PM 87.1 °F 36.0 °F 16% 30.03 in 10.0 mi SSE 11.5 mph 18.4 mph N/A   Clear
6:53 PM 86.0 °F 36.0 °F 17% 30.03 in 10.0 mi SSE 12.7 mph - N/A   Clear
7:53 PM 80.1 °F 37.0 °F 21% 30.04 in 10.0 mi SE 6.9 mph - N/A   Clear
8:53 PM 75.9 °F 54.0 °F 46% 30.06 in 10.0 mi SSE 15.0 mph - N/A   Clear
9:53 PM 71.1 °F 54.0 °F 55% 30.08 in 10.0 mi SSE 17.3 mph 21.9 mph N/A   Clear
10:53 PM 66.9 °F 55.0 °F 66% 30.10 in 10.0 mi SE 10.4 mph - N/A   Clear
11:53 PM 64.9 °F 55.0 °F 70% 30.10 in 10.0 mi SE 8.1 mph - N/A   Clear